Theta_e
318 317 321 320 322 322 324 330 331 334 336 328 323 328 327 325 331 335 335 335 338 337 334 337 337 335 336 337 341 341 339 342 346 344 340 336 332 335 333 333 334 335 339 339 339 340 338 339 338 335 333 331 331 333 335 337 337 336 336 335 335 335 335 334 333 332 331 332 333 333 331 331 331 331 331 331 331 330 329 329 329 329 328 328 329 330 330 330 330 330 329 329 329 328 328 328 326
319 319 321 320 322 320 325 333 333 334 332 323 321 326 324 325 331 338 341 338 340 338 336 339 340 342 341 338 339 340 337 336 337 335 333 332 334 335 333 333 333 335 339 338 339 339 338 338 337 334 333 332 329 332 335 335 335 334 334 334 334 334 334 334 332 331 332 333 335 333 331 330 330 332 332 330 330 330 330 329 329 329 328 328 329 330 329 330 329 329 328 328 328 327 327 328 327
319 320 321 321 322 322 331 332 328 331 328 324 326 329 327 330 337 342 344 339 337 337 338 339 343 344 342 343 340 340 338 334 334 332 330 332 334 333 333 333 332 336 338 337 338 338 338 337 335 333 333 333 329 331 333 333 334 333 333 333 333 333 332 333 331 331 333 333 335 333 331 330 330 331 331 330 332 332 331 331 329 329 328 328 329 330 329 329 329 329 328 329 328 327 328 328 327
320 321 321 321 322 328 344 338 331 333 325 326 328 329 337 337 339 341 341 339 337 338 339 340 345 337 338 346 339 339 339 336 334 333 333 332 333 334 333 333 333 336 337 337 338 337 337 336 334 331 332 333 330 330 332 333 334 332 331 332 332 332 332 332 331 332 334 334 334 334 332 331 330 329 329 330 332 332 331 330 329 328 328 328 329 329 329 329 328 328 328 329 328 327 328 327 327
320 322 319 321 325 329 337 331 330 332 322 329 328 329 344 343 338 338 337 336 334 335 337 340 345 336 335 341 338 341 339 337 334 332 334 332 333 333 332 332 333 336 337 337 337 338 337 335 333 330 329 330 329 329 331 332 331 331 332 332 331 331 331 331 331 331 334 334 334 335 333 332 331 329 328 330 331 330 329 328 328 329 328 328 328 329 328 328 328 328 328 327 326 326 326 326 326
321 321 320 320 320 320 327 320 322 329 326 334 333 334 344 339 337 338 334 331 331 332 334 339 344 341 341 339 336 337 335 337 335 332 333 333 334 333 332 331 333 337 337 337 338 337 337 337 333 330 329 329 330 330 331 331 330 331 331 331 330 331 331 331 331 331 333 334 335 335 332 332 331 329 329 331 331 328 327 328 328 328 328 328 328 329 328 328 328 327 326 326 326 326 326 326 325
319 320 325 326 321 323 330 324 326 331 324 329 334 338 339 336 336 336 332 331 333 333 335 340 339 343 344 337 336 334 332 335 333 333 333 333 334 332 332 331 333 336 336 338 338 337 338 337 332 330 331 329 330 331 330 331 331 331 330 329 330 331 330 331 331 331 333 334 334 334 332 332 331 330 329 328 328 328 328 328 328 328 328 328 328 328 328 328 327 326 325 325 325 325 325 325 324
320 322 329 335 334 334 337 328 332 333 320 323 331 337 336 334 336 335 335 334 335 335 339 342 337 344 342 335 341 337 332 333 332 334 333 333 334 332 332 331 334 335 336 338 337 337 337 335 331 331 332 328 328 330 331 331 331 332 331 329 330 331 330 331 331 332 333 333 333 333 332 332 331 330 328 327 328 329 329 329 328 329 328 328 327 327 327 327 326 325 325 324 323 322 323 322 321
320 323 327 333 332 334 341 331 326 326 321 326 330 334 335 333 335 333 333 333 334 340 342 339 336 340 340 339 346 336 331 334 333 333 333 334 334 332 332 331 333 335 336 337 337 337 337 334 329 331 332 327 328 330 330 331 331 331 330 329 330 331 332 332 331 332 333 332 332 332 333 332 332 330 327 327 327 327 327 328 327 327 327 327 327 326 326 325 325 324 323 321 320 320 320 321 320
321 323 328 332 332 329 332 329 324 324 321 327 328 332 336 333 332 329 332 333 333 342 341 336 339 338 341 347 345 335 332 333 332 334 333 334 333 332 333 331 332 334 336 337 336 336 335 331 328 331 330 326 329 330 329 329 329 329 328 329 330 330 331 332 332 332 332 333 332 332 333 332 332 330 328 327 327 326 325 326 326 326 327 326 326 326 325 324 323 321 320 320 320 320 320 320 320
325 329 334 332 334 329 327 330 333 334 324 324 327 329 333 331 329 327 331 332 331 340 339 335 343 343 345 347 340 334 332 332 333 334 333 333 333 332 333 332 333 334 336 336 335 335 333 329 328 329 328 326 327 327 327 327 328 329 328 329 330 330 330 330 331 331 330 332 331 332 333 332 333 331 329 328 327 326 325 326 326 326 325 325 325 324 323 321 321 320 319 320 320 320 320 321 321
326 334 340 331 331 331 331 333 332 337 330 326 328 326 329 327 325 328 332 333 334 344 342 336 340 344 351 349 341 333 330 332 333 333 333 332 332 332 332 332 334 334 335 336 335 335 332 329 328 328 327 325 324 323 325 328 328 329 330 330 329 329 329 327 328 331 330 330 329 330 331 332 332 331 330 329 327 325 326 327 325 325 324 325 323 321 320 319 319 319 320 320 320 321 321 321 321
333 335 337 329 328 330 330 328 325 331 331 331 329 321 323 325 326 330 336 335 336 344 338 332 338 347 354 347 340 334 330 332 332 334 333 332 332 331 331 330 332 334 334 335 335 335 333 330 329 329 328 326 323 322 327 330 328 328 330 331 329 328 329 327 327 330 331 330 329 330 330 330 331 331 330 329 327 325 326 326 325 326 325 324 321 318 318 318 318 318 319 319 320 321 321 321 321
335 337 336 330 328 330 329 324 322 326 330 333 327 320 321 324 326 331 335 335 335 337 328 327 336 348 348 341 344 340 333 331 331 333 332 332 332 331 331 330 331 332 332 335 335 335 335 332 330 330 329 327 325 323 327 328 327 328 330 331 330 328 328 328 328 330 331 330 330 331 331 330 330 330 330 329 328 325 324 325 326 326 325 322 319 318 318 317 317 316 316 317 318 319 320 321 321
332 340 338 334 327 328 329 323 323 328 334 332 321 322 325 320 325 331 333 335 333 327 326 329 332 337 339 343 349 342 333 331 331 333 333 332 331 332 332 331 332 331 332 335 336 335 336 334 331 331 330 329 327 325 325 327 328 328 328 329 329 329 328 327 328 329 330 329 329 331 331 330 330 330 330 329 328 326 323 323 324 325 324 321 319 318 317 317 316 316 316 315 315 316 318 319 320
335 343 335 332 328 326 327 323 324 327 332 330 319 322 326 320 323 330 325 328 331 325 330 335 328 330 337 341 340 334 332 331 330 332 332 333 332 332 333 333 333 332 332 334 337 335 335 336 332 331 331 329 329 327 324 325 329 329 328 328 328 328 327 326 327 328 328 329 329 329 330 330 330 329 329 328 327 327 324 322 321 323 323 320 318 318 317 317 317 316 316 316 317 317 318 319 320
332 337 333 331 328 328 327 324 324 327 331 328 320 321 326 323 320 321 320 327 335 331 334 334 326 330 337 337 333 330 332 330 329 331 332 332 333 333 333 333 333 333 332 333 336 335 335 336 333 331 331 330 329 328 326 324 326 327 328 329 328 327 326 325 325 327 327 328 328 328 328 329 330 329 328 327 326 326 324 322 320 320 321 319 318 318 318 317 317 317 317 318 318 318 319 320 320
326 331 333 330 330 333 332 327 324 325 327 323 321 324 327 326 322 320 323 332 337 332 334 335 331 331 332 332 332 331 331 330 330 332 332 333 332 333 333 333 332 333 333 333 335 336 336 336 334 332 331 330 329 328 327 325 324 324 324 327 329 327 326 325 324 326 327 327 327 327 327 327 328 328 328 327 326 325 323 322 320 320 320 318 318 318 318 318 317 317 317 318 319 319 319 320 321
332 335 330 330 335 334 329 327 324 321 323 323 322 325 325 325 325 321 326 333 333 333 334 336 337 335 332 331 331 331 330 330 331 331 332 333 333 333 333 333 333 332 333 334 335 336 337 335 334 332 330 330 330 329 327 325 325 324 322 323 326 328 327 326 325 325 325 326 325 325 326 326 327 328 328 327 326 325 323 322 321 320 319 318 318 318 318 318 317 317 317 318 319 320 319 320 321
334 334 328 334 338 329 323 323 325 321 322 326 323 321 322 322 323 320 327 334 332 336 336 335 340 342 339 332 328 329 329 330 331 332 332 332 333 333 333 333 333 333 333 334 334 336 337 335 334 332 330 330 329 329 328 326 325 324 322 321 322 324 326 326 326 325 324 325 325 325 326 326 326 327 327 327 327 326 324 322 321 320 319 318 318 318 318 318 318 318 317 317 318 319 319 320 320
326 328 331 336 332 324 320 319 322 320 318 324 324 321 321 320 320 321 329 334 333 335 334 334 341 347 343 331 327 328 328 330 331 331 332 333 333 332 333 333 333 333 332 333 334 335 336 335 334 332 330 330 329 329 329 327 326 325 323 321 319 320 323 325 326 325 324 323 324 325 325 326 326 326 327 327 327 326 325 323 322 321 319 318 318 318 318 318 318 318 318 317 317 318 318 319 319
324 324 331 331 322 318 318 317 318 317 315 320 324 323 321 318 318 325 332 332 332 332 330 332 336 343 343 332 328 327 327 329 329 330 331 332 333 333 333 333 333 333 332 333 333 334 336 335 334 333 331 330 330 329 329 328 327 326 324 321 319 318 319 322 325 326 325 323 323 324 325 326 325 325 325 325 326 325 323 322 321 321 319 318 318 318 318 318 318 318 318 318 317 317 317 318 318
327 326 329 326 317 316 317 316 316 316 316 319 323 320 318 318 317 324 331 328 328 327 323 326 328 331 334 330 328 328 327 327 328 330 330 331 332 332 333 333 333 333 333 333 333 334 335 335 334 333 331 330 330 329 330 329 327 326 324 322 320 318 318 319 322 325 326 324 323 323 323 324 325 325 324 324 323 323 321 321 320 320 319 318 317 318 318 318 318 318 318 318 317 317 317 318 319
329 328 328 325 319 317 316 315 316 317 318 319 318 315 316 320 319 320 326 327 326 319 313 317 322 326 329 328 329 328 327 327 328 329 330 331 331 332 332 332 332 333 333 333 334 334 334 335 335 333 332 331 330 329 330 329 328 326 325 324 322 320 319 318 318 321 325 325 323 322 322 323 324 323 323 322 321 320 319 319 319 318 318 317 318 318 318 318 318 318 317 317 317 316 317 317 318
328 330 329 322 318 317 316 317 318 317 318 318 317 316 318 321 317 316 322 324 320 318 321 325 326 328 329 330 330 328 327 327 327 328 329 330 330 331 331 331 332 332 333 332 333 334 334 334 335 334 333 332 331 330 330 330 329 327 326 326 324 323 322 320 318 318 321 324 324 322 321 322 322 322 320 320 320 319 318 318 318 317 317 317 318 318 318 318 318 318 317 317 317 316 317 316 317
331 330 328 323 319 316 316 316 318 319 317 318 320 320 324 320 316 318 322 323 321 326 338 340 333 334 332 331 330 327 328 327 327 327 328 329 329 330 331 331 331 331 331 331 332 333 333 333 334 334 333 332 331 330 331 331 329 328 328 327 326 325 324 323 321 319 319 321 323 322 321 320 320 321 321 321 322 322 321 320 319 317 316 316 317 318 318 318 317 317 317 317 317 317 316 316 318
333 330 327 327 324 318 319 319 318 320 318 319 322 324 326 320 316 320 321 323 327 337 348 339 336 340 334 331 330 327 328 327 327 328 327 327 327 328 329 330 330 330 331 330 331 331 332 332 332 334 334 333 332 331 331 331 330 329 328 328 328 327 326 325 324 322 320 318 321 322 321 320 320 321 323 323 324 324 323 323 321 319 317 316 317 317 317 317 317 317 317 317 317 317 316 316 319
330 329 327 328 326 325 324 322 320 319 318 320 322 324 326 320 318 321 320 321 325 337 350 342 339 340 331 331 331 327 328 327 328 327 327 327 327 327 328 329 330 330 330 330 331 330 330 331 332 333 333 333 333 332 332 331 330 329 328 328 328 328 327 327 326 324 322 318 318 321 322 321 321 322 323 324 324 324 324 324 323 322 319 317 316 316 317 317 317 317 317 317 316 316 314 316 320
329 329 331 329 326 329 327 323 323 318 317 322 322 322 323 320 319 321 322 324 326 331 345 345 340 336 331 331 330 328 328 328 328 327 328 328 328 328 327 328 329 330 330 330 331 330 330 330 331 332 332 333 333 333 332 332 330 329 328 328 328 328 328 328 327 325 323 320 317 318 322 322 321 322 323 324 324 324 325 324 324 323 322 320 318 317 317 317 317 318 318 317 316 315 314 316 320
328 328 333 332 329 334 331 325 323 318 317 321 322 322 322 322 321 322 322 325 329 329 337 343 338 333 330 330 330 330 328 327 328 328 328 328 328 328 328 328 328 329 330 330 331 331 331 330 330 331 331 332 333 334 333 332 331 329 328 327 327 327 327 327 327 325 324 322 319 316 318 321 321 322 323 324 324 324 324 325 325 324 323 322 321 318 318 318 319 319 318 317 316 314 314 316 320
333 330 332 333 337 341 333 325 322 319 318 320 323 324 323 326 329 330 323 321 327 326 330 336 336 333 330 329 329 330 328 327 328 328 329 329 329 329 328 328 328 328 328 329 330 330 331 331 330 330 331 332 333 333 333 332 331 329 328 327 326 326 327 327 327 326 324 323 322 317 315 317 319 321 323 323 323 323 324 325 325 324 323 323 323 320 319 319 319 318 317 316 315 314 315 317 321
334 336 336 334 338 342 334 325 322 322 322 320 324 326 327 329 332 333 323 318 322 323 325 328 332 333 330 329 329 329 329 327 327 328 329 329 329 329 329 329 329 328 328 328 329 329 330 330 330 330 330 332 332 332 332 332 331 330 329 327 326 326 326 327 327 327 325 324 323 322 319 318 318 320 321 323 323 323 323 324 324 323 324 324 322 321 320 319 317 317 316 316 315 316 317 320 322
330 335 339 335 336 338 335 329 323 325 325 321 323 327 331 327 323 325 320 317 321 321 322 323 326 329 328 329 329 329 329 328 328 328 328 329 329 329 329 329 329 329 329 328 328 328 328 329 329 329 329 330 330 331 332 332 332 331 330 328 327 327 327 327 326 326 326 324 324 324 323 322 320 319 320 321 322 322 322 322 323 323 324 324 322 321 322 320 318 318 317 316 316 318 320 322 323
331 332 336 336 336 335 336 335 325 325 326 324 324 325 329 327 322 322 319 319 322 321 321 320 321 324 325 327 328 328 329 330 328 327 328 329 329 330 330 330 330 330 330 329 329 328 328 328 328 328 328 328 329 329 330 331 330 330 330 328 328 328 328 327 327 327 327 326 325 324 324 324 324 322 321 320 320 321 321 322 322 322 323 323 322 322 322 322 321 320 319 317 318 320 321 322 323
332 332 334 336 337 334 336 337 327 324 327 327 327 325 325 326 325 325 322 319 322 324 322 319 317 318 321 324 326 327 327 329 328 326 327 328 329 329 329 330 330 330 330 329 329 329 328 327 327 327 327 328 328 328 328 328 328 329 329 328 328 329 328 328 327 327 326 326 325 324 324 324 325 324 323 322 320 321 322 322 321 321 322 323 323 322 323 323 323 322 321 320 321 322 323 323 323
331 331 334 336 338 335 333 333 327 323 326 327 328 326 325 325 323 324 323 320 321 323 321 319 317 315 316 318 322 324 326 327 325 325 327 327 328 329 329 330 330 330 330 329 329 329 328 327 326 326 326 326 326 327 327 327 327 328 328 328 329 329 328 328 327 326 326 325 324 323 323 324 324 325 325 324 323 322 322 323 322 321 322 323 323 322 322 322 323 323 323 323 323 323 324 324 324
331 332 335 335 337 336 332 331 326 321 326 328 327 327 326 325 324 323 322 320 321 322 321 319 318 316 315 315 317 319 322 323 322 323 325 326 327 328 329 329 329 329 329 329 329 328 328 328 327 326 325 325 326 326 327 327 327 327 326 327 327 327 327 327 326 325 324 323 323 322 322 323 324 325 325 325 324 323 323 323 323 322 323 324 324 321 319 321 323 324 324 324 324 324 324 324 324
331 332 335 335 336 335 332 330 324 319 325 330 327 327 326 324 324 323 322 321 321 321 320 320 319 317 315 315 315 315 316 318 319 320 321 324 327 327 328 329 329 329 329 329 329 329 329 328 328 327 326 326 326 327 327 326 327 326 326 326 326 326 326 325 324 322 322 322 321 321 321 322 323 324 324 324 324 324 323 323 323 322 323 324 323 321 320 321 323 324 324 324 325 325 325 325 325
332 332 333 335 334 333 331 326 320 318 326 332 328 325 325 323 323 323 322 321 320 319 319 320 320 319 317 315 314 314 314 315 318 319 318 320 323 326 327 328 328 329 329 329 329 329 329 328 328 327 327 327 327 327 327 327 327 326 326 326 327 327 326 325 324 322 322 322 321 320 320 322 323 323 323 323 323 323 322 322 322 322 323 323 324 323 321 321 322 323 324 324 324 325 325 325 325
332 333 333 335 333 334 336 329 318 317 323 325 323 324 323 322 323 322 320 319 319 318 318 318 318 319 319 317 315 314 315 315 315 317 316 316 319 323 326 327 328 328 328 328 329 329 329 329 328 328 328 327 327 327 327 327 327 327 327 327 326 326 326 326 325 324 324 324 323 321 320 321 321 322 321 322 322 321 321 321 321 321 322 323 324 324 323 322 322 322 323 324 324 324 324 324 325
332 332 332 334 334 332 333 329 320 319 322 319 320 328 330 329 330 327 323 322 319 317 317 318 318 318 317 318 318 316 315 315 314 316 316 313 315 320 323 326 327 328 328 328 329 329 329 329 329 328 328 328 328 328 328 327 327 326 326 326 326 325 325 325 325 325 325 324 324 322 321 320 320 320 320 320 321 321 321 321 320 321 321 322 323 324 324 323 323 323 323 323 324 324 324 324 324
333 332 331 334 336 331 325 325 324 327 332 325 322 334 340 337 337 332 328 328 324 318 317 317 316 316 316 316 317 317 316 315 314 315 315 313 312 316 320 323 326 327 328 328 329 329 329 329 328 329 329 328 328 328 328 327 326 326 326 325 325 325 324 325 325 325 325 325 325 324 323 322 321 320 320 321 321 321 322 322 322 322 322 322 323 323 323 323 323 323 322 322 323 323 324 323 323
335 333 333 334 335 331 324 325 330 333 335 326 320 333 342 337 335 337 336 334 329 322 320 319 317 316 316 316 316 316 316 316 315 314 314 313 312 314 317 320 324 326 327 327 328 328 328 328 328 328 328 328 328 328 327 327 326 326 326 326 326 325 325 326 326 326 326 327 327 326 325 324 323 323 322 322 322 323 323 323 323 323 323 323 324 323 323 323 322 322 322 322 322 323 323 323 323
335 332 333 335 333 332 327 327 332 331 328 323 320 328 337 334 332 335 335 332 329 326 324 322 318 317 317 316 316 316 316 316 316 315 314 313 312 312 315 318 321 323 324 326 328 328 328 328 328 328 328 328 328 328 327 327 327 326 326 326 326 326 327 327 327 327 327 327 327 327 326 326 325 324 324 324 324 324 324 324 324 323 324 324 324 324 323 323 323 322 322 322 322 322 323 323 323
332 328 331 333 332 332 328 327 329 327 328 329 324 323 333 338 334 330 327 329 331 329 326 324 321 319 318 317 316 316 316 316 316 315 314 312 310 312 314 316 318 320 322 324 326 327 328 328 329 328 328 328 328 328 328 327 327 326 326 326 326 327 327 327 326 326 327 327 326 327 326 326 326 325 325 325 325 325 325 325 324 324 324 324 324 324 324 324 323 323 323 322 323 323 323 323 323
327 324 327 328 329 329 325 327 329 328 331 334 327 324 332 337 333 330 327 329 331 328 326 325 323 322 321 318 317 315 315 317 317 317 314 311 310 312 313 315 317 318 320 322 323 326 328 328 328 328 328 329 329 328 328 328 327 327 326 326 326 327 326 326 326 326 326 326 326 326 326 326 326 325 325 325 325 326 326 325 325 325 325 325 325 325 324 324 324 324 323 323 323 323 323 323 324
325 326 329 329 330 331 330 331 331 330 334 334 328 327 333 336 335 334 331 330 331 329 329 330 328 328 327 323 320 317 316 317 317 316 313 310 310 311 312 314 316 317 320 321 324 326 327 328 328 328 329 329 329 329 328 328 328 327 327 327 327 327 326 326 326 326 325 326 326 326 326 326 326 326 326 326 326 326 326 326 326 326 326 326 326 325 325 325 325 325 325 324 324 324 324 324 324
330 334 334 332 332 331 332 332 330 332 336 333 327 325 330 336 335 335 333 330 329 330 331 334 333 333 330 327 324 319 316 316 316 317 315 311 311 310 310 312 315 316 319 321 324 326 326 328 328 328 329 329 329 329 329 329 328 328 328 327 327 327 327 326 326 326 326 325 326 325 325 326 325 326 326 326 326 326 327 327 326 326 326 326 326 326 326 326 325 326 326 326 325 325 325 325 324
334 335 334 336 334 332 334 333 331 335 334 328 323 324 329 332 330 332 332 329 328 328 326 327 328 327 326 326 326 324 320 319 319 318 316 314 313 309 308 311 313 315 317 319 322 324 326 327 328 328 329 329 329 329 329 329 328 329 328 328 328 327 327 327 327 327 326 326 326 326 325 326 325 326 326 326 327 327 327 327 326 326 325 325 325 325 325 326 326 326 326 326 326 326 326 325 325
332 331 332 336 335 336 338 335 334 336 332 324 321 326 331 332 330 328 328 327 327 326 323 324 325 324 323 323 323 323 322 320 321 319 317 316 313 308 306 309 311 314 316 318 320 323 325 326 327 328 329 329 329 329 329 329 329 329 329 329 328 328 327 327 327 327 326 326 326 326 326 326 326 326 327 327 327 327 327 327 326 326 325 325 324 324 324 325 326 326 326 326 326 326 326 327 326
330 330 333 334 334 339 340 337 338 337 330 324 322 328 335 336 332 325 323 326 325 322 321 320 322 322 320 319 318 319 318 315 315 314 314 314 310 306 306 307 309 312 315 317 319 322 323 325 326 327 328 328 328 329 329 329 330 329 329 329 329 328 328 328 327 327 327 327 327 327 327 327 327 327 327 327 327 327 327 327 327 326 326 326 325 325 325 325 326 326 327 327 327 327 326 327 327
330 332 335 333 334 338 335 331 332 334 332 328 325 329 333 333 328 322 323 325 324 324 323 320 322 321 316 318 320 318 315 314 313 314 315 314 307 304 306 307 308 310 313 316 318 320 322 324 325 326 327 328 328 328 329 329 329 329 329 329 329 329 328 328 328 328 327 328 327 327 328 328 328 328 328 328 328 328 327 327 327 327 327 327 326 326 326 326 326 326 327 327 327 328 327 327 327
329 332 334 331 331 335 333 326 325 329 335 334 329 330 332 331 328 326 327 328 327 327 326 325 327 323 319 322 324 319 317 316 315 315 316 314 307 303 305 306 307 309 310 314 316 318 321 322 324 325 326 327 327 327 328 328 329 329 329 329 329 329 329 328 328 328 328 328 328 328 328 328 328 328 328 328 328 328 328 327 327 327 327 327 327 327 327 327 327 326 327 327 326 326 327 327 326
329 332 330 327 328 332 333 331 329 330 335 336 331 330 335 336 334 332 327 327 328 326 327 329 329 326 326 327 325 322 319 316 316 315 315 315 307 302 304 306 307 308 309 311 314 316 319 320 322 324 324 325 326 326 327 328 328 328 328 329 329 329 329 329 329 329 328 328 328 329 329 328 328 328 328 328 328 327 327 327 327 327 327 327 327 327 326 326 326 326 326 326 325 325 326 326 323
328 329 327 329 333 332 330 332 334 334 335 337 329 324 330 333 331 330 327 327 330 330 333 336 333 331 331 331 332 329 321 319 324 323 323 325 312 301 302 305 306 308 308 309 311 313 316 319 320 322 323 324 325 325 326 327 327 328 328 328 328 328 329 328 329 329 328 328 329 328 328 328 328 328 328 327 327 327 327 327 327 327 327 327 327 326 326 326 326 325 325 325 325 325 325 325 324
325 328 328 331 335 333 332 333 333 334 335 337 331 326 330 331 327 328 328 326 329 330 329 333 337 337 332 331 334 335 331 332 336 331 331 332 315 300 302 305 305 307 308 308 309 310 313 316 318 320 322 322 324 324 325 326 326 327 327 328 328 328 328 328 328 328 328 328 328 328 328 328 328 327 327 327 327 327 327 327 327 327 327 327 327 327 326 326 325 324 324 324 324 324 324 325 326
326 330 329 330 330 329 334 334 331 333 334 336 336 332 331 329 325 325 327 325 324 326 325 326 334 336 334 331 330 331 332 333 333 330 328 326 312 301 302 305 305 306 307 307 308 309 310 312 315 318 320 321 322 323 324 325 325 326 326 326 327 327 327 327 327 328 328 328 327 327 327 327 327 327 327 327 327 327 327 327 327 327 327 326 326 326 325 325 325 324 324 325 324 324 325 325 325
327 329 328 329 329 329 334 334 329 329 329 331 333 332 330 330 324 320 322 323 322 324 323 323 325 327 329 328 323 322 322 322 324 320 317 317 309 302 304 305 305 306 307 308 309 309 309 310 311 313 316 319 320 322 323 324 324 325 325 325 326 326 326 326 326 327 326 327 327 326 326 327 327 327 327 327 327 327 327 327 327 327 327 326 325 324 323 323 324 323 323 323 323 323 324 324 324
Wind_Speed
6 7 8 6 4 1 3 5 2 3 4 2 1 1 2 2 1 2 2 1 1 2 2 1 2 5 3 2 5 6 3 3 5 4 2 3 10 22 15 11 18 18 17 15 14 14 13 13 10 8 8 8 8 8 9 11 11 9 7 6 8 10 11 12 13 12 11 11 12 12 12 13 14 14 14 13 12 11 11 11 12 13 13 14 15 15 15 15 15 15 16 16 15 15 14 15 16
6 8 8 4 4 3 1 3 2 3 5 1 2 2 2 0 1 4 6 4 3 2 3 4 4 5 4 2 4 4 1 1 3 3 1 6 14 19 12 12 19 19 18 16 15 14 14 14 11 10 9 7 9 11 10 10 11 11 9 7 7 9 10 11 12 11 10 11 11 11 12 14 15 14 13 14 13 12 12 12 13 13 13 14 15 15 15 14 15 15 15 15 15 15 15 14 15
6 7 7 2 3 4 1 4 2 1 4 2 4 3 1 2 5 6 7 6 5 5 4 3 3 4 3 3 1 2 1 1 3 2 2 10 14 15 14 14 19 19 18 17 16 15 14 13 11 11 10 9 10 12 11 10 10 10 10 9 8 8 9 10 10 10 10 10 11 11 13 14 14 13 12 13 13 12 12 13 13 13 13 13 14 14 14 14 14 14 15 15 14 15 15 14 14
4 6 6 2 2 4 3 4 2 4 3 3 3 4 2 5 7 6 6 6 7 5 2 2 3 1 1 1 1 1 1 1 3 4 4 12 15 17 18 17 20 20 18 17 16 16 14 12 11 10 10 10 11 12 12 10 9 9 9 9 9 9 9 9 10 10 9 10 11 12 14 13 12 13 12 12 12 11 11 11 12 12 12 12 13 14 14 14 13 13 14 14 13 14 14 14 14
3 6 7 1 2 2 3 3 2 4 3 4 2 5 5 5 6 5 4 4 4 3 1 2 2 1 1 1 0 0 2 0 3 5 7 14 16 19 20 19 21 20 19 18 17 16 14 13 11 10 10 10 10 12 12 9 10 10 9 9 10 10 10 10 10 10 8 9 11 12 13 12 11 13 13 12 11 10 9 11 11 11 12 12 13 14 14 13 12 12 12 12 12 12 13 13 13
3 4 8 7 3 1 2 1 2 2 4 4 3 5 5 6 6 6 3 2 3 1 3 2 2 2 1 1 0 2 1 1 4 5 9 15 16 20 20 20 21 20 19 18 18 17 15 12 11 10 9 10 11 11 11 10 10 11 10 10 11 11 10 10 10 10 7 8 11 11 11 10 10 11 13 12 10 9 9 11 11 11 12 12 13 13 13 12 11 11 11 11 11 11 11 11 11
5 2 4 7 2 2 3 2 4 3 3 4 3 4 5 6 5 6 4 1 1 1 3 1 2 4 1 2 0 2 1 1 3 4 11 17 18 21 20 20 21 21 19 19 19 17 15 12 11 11 9 10 11 11 10 10 11 11 10 10 11 10 10 10 10 10 8 8 10 10 9 9 9 10 10 10 9 9 10 11 11 11 12 12 12 12 12 11 10 9 9 10 10 10 10 10 10
6 2 1 4 2 3 4 1 3 3 2 3 3 4 5 6 6 6 5 2 1 1 2 2 2 3 1 1 1 3 3 3 3 4 13 17 20 21 20 21 21 21 19 19 19 17 16 13 13 12 10 10 11 12 11 10 10 10 10 10 11 10 10 10 10 10 9 9 9 9 9 9 10 9 8 9 10 10 10 10 10 11 11 11 12 11 11 10 9 8 9 9 9 9 9 9 9
6 4 0 2 1 2 2 1 2 3 3 3 3 4 3 5 5 6 4 2 1 2 2 3 2 1 1 1 2 3 3 3 4 8 15 17 20 21 20 21 22 22 20 20 19 18 16 14 14 14 12 11 12 13 11 12 11 10 11 11 10 10 10 11 11 10 8 9 9 9 9 9 9 8 7 8 9 8 8 9 9 10 10 10 11 11 10 9 8 8 8 8 8 9 9 9 8
4 4 1 2 2 2 3 2 2 2 4 4 3 4 3 5 4 3 4 2 1 4 3 2 3 2 3 2 2 2 2 4 8 12 16 18 20 20 20 20 21 23 21 21 20 19 17 15 15 15 13 12 14 13 12 13 11 10 11 11 10 10 10 11 12 10 8 8 9 9 9 9 8 7 7 7 7 7 8 8 9 9 9 9 10 10 10 9 8 8 8 8 8 8 8 8 7
2 3 2 2 3 1 2 3 3 3 5 4 2 3 4 5 5 2 2 3 0 3 2 1 2 3 3 1 3 1 1 7 13 15 18 20 19 18 20 19 21 22 21 21 20 19 18 16 16 14 13 13 13 12 11 12 12 11 11 10 9 10 11 11 9 9 9 7 7 9 9 9 8 7 6 7 7 8 8 8 9 9 9 9 9 9 10 10 9 8 8 8 8 8 7 7 6
1 2 3 2 2 3 3 2 4 4 5 3 1 2 4 5 4 3 4 4 2 2 3 3 3 4 3 2 3 1 3 12 14 17 20 19 18 17 18 18 20 21 20 21 20 20 18 17 16 14 13 12 12 11 12 12 12 12 11 11 9 9 10 11 9 8 8 7 7 7 7 8 8 7 7 8 8 8 8 8 8 8 8 8 9 10 10 10 9 8 8 7 7 7 6 6 5
2 1 4 1 2 2 3 2 4 2 4 3 3 2 4 6 3 6 6 4 4 4 5 6 4 5 3 3 3 2 5 14 15 18 21 19 18 17 17 18 20 20 19 21 21 20 19 18 17 15 12 11 11 12 13 13 13 13 12 11 10 9 9 10 9 9 9 9 9 8 8 8 8 8 7 8 7 7 8 8 8 8 8 8 9 11 10 10 9 8 7 6 6 5 5 4 4
2 2 4 2 1 2 4 1 2 2 3 5 2 2 3 3 4 6 7 4 5 6 3 4 6 4 2 2 3 3 7 15 17 20 22 20 19 18 17 18 19 19 19 21 22 21 19 18 17 15 12 11 12 13 14 13 14 14 12 11 9 9 10 10 10 10 10 10 10 10 10 9 9 8 8 7 6 6 8 9 9 8 8 9 10 11 10 9 8 7 6 5 5 4 4 3 2
3 2 3 3 1 1 3 2 2 4 5 4 2 4 4 1 4 5 5 6 5 5 2 2 4 2 3 4 3 5 11 18 19 22 23 21 20 19 19 18 18 19 19 21 22 21 19 19 17 14 12 12 11 12 13 13 14 13 12 11 9 10 11 11 12 12 11 11 10 9 10 10 10 9 8 8 7 6 6 8 9 8 8 9 11 10 9 8 7 7 6 5 5 4 3 3 3
3 3 4 2 2 2 3 2 3 3 5 4 1 3 5 2 3 5 4 4 3 1 2 2 2 1 4 7 3 4 16 21 19 22 23 22 20 18 18 18 17 17 18 20 22 22 20 20 18 14 13 12 11 11 11 13 14 13 12 11 10 11 11 12 13 13 12 12 12 10 9 10 10 10 9 9 8 7 6 7 8 9 9 9 10 10 9 8 7 6 5 5 4 4 3 3 3
2 4 3 1 3 4 4 4 4 4 5 4 3 3 7 2 1 2 1 4 4 1 1 2 2 1 4 4 4 4 21 23 21 23 22 21 19 17 17 17 16 15 16 21 23 23 21 21 19 16 14 12 11 11 11 12 13 14 13 12 12 11 11 11 11 13 14 13 12 11 10 10 10 10 10 9 8 8 7 7 8 9 9 10 10 9 9 7 7 6 5 4 4 3 3 3 2
2 3 3 3 3 4 5 7 7 4 4 5 4 5 8 4 2 2 1 4 3 1 2 2 3 3 4 5 2 11 25 24 24 24 21 21 19 18 18 18 18 16 17 21 24 25 24 22 20 18 16 14 12 12 12 11 12 12 13 13 14 13 12 12 10 12 14 14 13 13 12 11 11 11 10 9 9 8 7 7 7 8 8 9 10 9 9 8 7 6 5 4 3 3 3 3 2
3 3 2 4 4 5 5 7 6 3 3 5 4 4 6 5 5 3 2 1 2 2 4 3 4 5 2 2 7 18 25 25 25 25 23 22 21 19 19 18 19 19 19 22 24 25 25 23 21 20 18 17 15 13 13 12 12 12 12 13 15 14 14 13 11 11 14 14 14 13 13 12 12 12 11 10 9 8 7 8 7 8 9 9 10 9 8 8 7 5 4 3 3 3 3 3 3
2 4 2 6 5 4 5 6 6 4 3 7 5 4 4 3 3 3 4 3 1 4 6 1 4 7 2 3 12 19 22 23 24 23 22 24 23 21 20 20 20 21 22 23 24 25 25 24 23 21 19 19 17 16 15 13 13 13 12 13 14 15 15 14 13 13 14 15 15 14 13 13 13 13 12 11 11 9 9 9 9 9 10 10 10 10 9 8 7 6 5 4 4 4 4 4 5
2 4 4 5 4 3 4 6 6 4 2 6 5 5 3 3 3 3 6 5 4 7 8 8 9 9 6 5 11 17 19 19 20 21 22 25 24 22 22 21 21 22 22 23 24 25 26 26 24 23 21 21 20 18 17 16 14 14 14 13 14 15 16 16 16 15 15 15 15 15 14 14 14 14 14 13 12 11 10 10 10 10 11 11 11 11 10 10 8 8 7 6 6 5 5 5 5
2 3 4 4 4 2 3 5 6 4 3 4 6 6 5 3 2 4 9 6 6 7 7 9 10 9 10 10 12 14 15 16 17 19 21 25 25 23 21 21 22 22 23 25 25 26 27 27 26 25 24 23 22 20 18 17 16 16 15 15 15 16 17 17 18 17 16 16 16 16 15 15 15 15 15 15 14 13 12 11 11 11 12 12 12 12 12 11 10 9 8 8 8 8 7 6 6
3 3 3 4 4 2 2 2 4 5 6 5 6 4 4 5 2 3 8 9 7 5 4 7 7 7 11 13 14 12 12 15 18 21 23 25 26 24 22 22 23 23 24 26 26 27 28 28 28 27 25 24 24 22 19 18 18 18 16 16 16 17 17 18 19 19 18 17 16 16 16 16 16 16 16 15 15 15 13 12 12 12 13 13 13 14 13 12 11 10 10 9 9 10 9 8 7
3 3 2 4 4 2 1 2 3 6 7 6 4 2 4 7 4 2 5 11 8 4 2 3 5 8 12 12 12 13 15 17 20 23 24 25 27 27 25 24 24 24 25 27 27 28 29 30 30 29 27 26 25 24 22 20 19 19 18 18 18 17 17 18 18 18 18 18 17 17 17 17 17 17 17 16 15 14 13 13 12 13 13 14 14 15 14 13 12 12 11 11 11 12 11 10 9
3 5 2 3 3 2 1 4 4 3 4 3 5 3 3 6 4 2 7 11 7 3 2 4 6 9 10 10 11 12 13 17 19 20 22 23 25 25 25 25 25 24 25 27 28 29 31 32 31 31 30 28 26 26 25 23 22 21 20 20 19 18 18 18 17 17 19 19 18 18 18 18 18 18 17 16 14 13 13 12 13 14 14 14 15 15 15 14 13 13 12 12 13 13 12 11 10
5 6 2 3 3 2 3 4 3 2 1 2 5 3 4 3 1 3 9 8 3 1 5 5 6 7 8 9 10 11 11 15 19 20 22 22 22 23 25 26 26 27 28 28 28 30 31 31 32 33 32 30 28 27 27 25 24 23 23 21 20 19 19 17 17 17 18 19 20 19 19 19 19 18 17 16 15 13 13 13 13 13 15 15 16 16 16 15 14 14 14 14 14 14 13 12 11
5 6 4 3 3 1 3 3 0 2 1 2 4 5 4 1 1 4 6 2 3 5 5 5 6 8 9 8 9 12 13 17 21 20 19 19 20 24 26 27 28 30 31 30 30 30 29 30 32 33 33 31 30 29 28 27 26 25 24 22 21 20 19 18 18 18 19 20 21 20 20 20 20 19 18 17 16 15 15 14 14 14 15 15 16 16 16 16 15 15 15 14 14 14 14 12 12
5 7 4 1 3 1 2 3 2 1 1 3 5 3 4 1 2 5 4 0 4 5 5 5 7 7 8 9 8 10 13 17 20 17 18 21 24 26 27 29 30 30 31 32 32 31 29 30 32 32 33 33 32 31 30 29 27 26 25 24 23 22 20 19 19 19 19 20 21 22 21 21 21 21 20 19 18 17 17 17 16 15 15 15 16 17 17 17 16 16 15 15 15 15 14 13 12
5 6 4 1 5 2 3 2 2 3 2 4 5 2 7 6 5 6 5 3 5 5 6 6 7 7 6 7 6 7 11 14 15 18 23 27 28 28 29 30 31 31 31 31 31 32 31 31 31 32 32 33 33 33 32 31 29 27 26 25 24 23 21 20 21 20 20 20 21 23 23 23 23 23 23 21 19 19 19 19 18 17 16 15 16 17 18 18 17 17 16 16 16 16 15 14 13
3 3 2 2 4 3 5 3 2 4 3 3 3 3 9 8 6 8 7 5 6 5 7 7 7 6 6 6 6 7 10 13 16 23 27 27 28 29 30 31 31 32 31 30 31 32 33 31 31 31 32 33 33 33 33 32 30 28 27 26 25 24 23 22 22 21 21 20 20 22 24 25 25 25 25 23 21 20 20 21 20 19 17 16 17 18 19 19 18 18 17 17 17 16 16 15 14
3 2 0 2 2 4 5 3 5 5 2 2 4 5 9 3 5 8 6 6 8 8 8 8 7 6 6 6 7 8 10 15 20 25 27 27 28 27 29 31 31 31 31 32 33 33 33 32 32 32 33 34 33 34 33 32 31 29 28 27 26 25 24 24 23 22 22 21 20 20 22 24 26 27 26 25 23 22 22 22 22 20 18 17 18 18 19 20 20 19 18 17 17 16 16 16 15
1 2 1 1 3 4 5 2 9 8 2 2 6 5 7 2 5 6 2 6 8 8 9 8 8 7 7 6 7 8 8 14 20 22 25 27 28 28 29 30 30 31 32 33 33 32 33 34 33 33 33 34 34 34 33 33 32 30 29 28 27 26 26 26 25 24 23 22 22 21 21 22 25 27 27 27 26 25 24 23 23 21 19 20 20 20 20 20 20 20 19 18 17 17 16 16 16
1 3 3 2 4 3 3 2 6 8 3 1 4 6 4 1 4 4 1 6 7 7 9 8 8 8 7 6 6 7 7 9 14 20 26 27 29 30 30 31 31 32 33 34 33 33 35 35 35 35 35 35 34 34 34 33 33 31 31 30 29 28 28 28 26 25 25 24 24 24 23 22 23 25 27 28 28 27 26 25 24 22 21 21 21 21 21 20 19 20 19 18 18 18 17 18 17
2 2 2 2 3 3 2 3 5 4 5 5 7 9 8 3 4 4 0 6 7 7 9 9 8 7 7 6 6 7 7 8 10 19 27 29 31 31 31 32 31 32 33 34 34 35 35 35 36 36 36 36 35 35 34 34 33 33 32 31 31 30 30 29 28 27 27 26 26 26 25 25 25 25 26 28 29 29 28 27 26 24 24 24 23 23 22 20 19 19 20 19 19 19 19 19 18
5 4 4 2 3 4 4 4 3 6 6 7 6 10 14 9 7 7 4 6 7 7 8 8 8 8 7 6 7 8 8 9 13 20 25 27 30 31 31 31 31 32 32 33 34 34 35 35 36 36 37 36 36 35 35 34 34 34 33 32 32 32 32 31 30 30 29 29 29 28 27 27 27 27 26 27 28 29 28 28 27 26 26 26 26 25 24 23 21 20 21 20 20 20 21 20 20
10 7 6 6 5 4 4 4 3 6 5 6 8 11 15 12 10 12 10 5 5 7 7 6 7 7 7 6 7 9 9 11 17 20 20 22 27 29 30 31 32 32 32 32 33 34 35 35 35 36 37 36 36 35 35 34 34 34 34 33 33 34 34 33 32 32 32 31 31 30 29 29 29 29 28 28 28 28 28 28 28 27 28 28 28 28 27 26 23 23 22 22 22 22 22 21 21
11 8 6 7 5 5 4 2 3 3 4 6 10 12 15 12 10 13 9 3 5 9 9 9 8 7 7 8 9 10 11 12 15 18 19 21 24 27 29 30 30 31 31 32 33 34 36 36 36 37 37 36 36 36 36 35 35 34 33 34 35 35 35 34 35 35 34 34 33 32 31 31 31 31 30 30 29 29 29 29 29 29 29 29 29 29 29 28 26 25 24 24 23 23 24 23 21
9 7 6 6 6 5 4 3 2 3 3 5 5 8 15 11 10 12 6 4 9 11 11 12 11 10 9 10 12 11 9 9 11 13 17 21 22 24 27 29 30 31 32 34 34 35 35 36 37 38 37 37 38 38 38 37 38 36 35 35 36 36 36 36 37 36 35 35 34 34 33 32 32 32 32 31 31 31 31 30 30 30 29 30 30 29 30 29 28 27 26 26 25 24 24 23 21
8 6 5 6 4 1 3 2 2 2 3 3 2 5 12 10 9 12 10 10 12 12 13 13 12 11 10 11 11 10 8 9 9 10 15 20 22 23 26 28 31 33 33 34 35 35 35 36 38 37 38 38 39 39 39 39 38 37 36 35 34 34 34 35 36 36 35 35 35 34 35 34 34 33 32 32 32 32 32 32 32 31 31 31 31 31 30 30 30 29 28 27 26 24 24 24 22
6 7 6 4 3 2 3 3 2 0 1 1 1 5 10 8 6 10 13 13 12 11 11 12 11 11 13 12 9 9 11 12 10 9 12 17 20 22 25 29 31 32 32 32 34 35 36 38 38 38 38 38 39 39 39 39 38 36 36 35 33 32 31 31 32 33 34 34 34 34 35 35 34 34 33 32 32 32 32 33 33 33 33 32 32 32 31 31 31 30 29 28 27 25 24 24 23
5 6 7 4 3 3 1 0 1 2 3 2 2 6 9 7 7 11 9 7 10 10 9 11 11 12 13 10 8 10 12 12 11 10 10 12 17 22 27 29 30 31 32 34 36 37 38 38 38 38 39 39 39 39 39 38 37 36 34 32 30 29 28 28 28 30 32 32 34 34 35 34 34 34 33 33 32 33 33 33 33 34 34 34 33 33 33 32 31 31 30 29 28 27 26 25 22
3 4 6 6 7 5 3 2 3 3 3 3 1 4 7 4 5 10 6 3 9 7 6 12 13 12 11 9 10 11 11 10 10 10 10 12 17 22 25 28 30 31 34 36 38 38 38 38 38 38 38 39 39 38 38 37 37 36 34 32 30 28 27 30 32 32 32 33 34 33 33 33 34 34 33 33 33 33 33 33 33 33 33 33 33 33 33 32 32 32 30 30 30 29 27 25 23
3 5 7 7 7 6 4 3 1 1 4 3 1 3 7 5 4 8 4 5 11 6 5 12 12 11 10 10 11 10 10 10 9 10 10 12 16 19 22 28 31 32 35 37 37 38 38 38 38 38 39 39 38 38 37 37 37 37 36 35 33 31 31 34 35 34 33 34 33 32 32 32 32 32 32 32 32 32 32 32 32 33 33 33 33 33 33 32 32 32 31 30 30 28 27 25 25
3 5 10 9 7 6 5 5 3 2 2 3 2 2 4 7 6 5 2 5 11 10 10 12 11 11 10 9 11 11 12 12 10 10 11 12 16 19 23 29 32 35 36 36 37 38 38 39 39 38 38 38 37 37 37 37 38 38 37 36 35 35 36 36 34 32 32 32 32 32 32 31 30 30 30 30 30 30 30 30 31 31 32 33 33 33 33 32 32 31 30 30 29 28 27 27 28
3 3 8 8 7 6 5 5 3 1 2 3 2 2 3 8 6 2 2 4 10 12 12 13 11 11 10 10 11 12 12 11 10 11 11 12 16 22 26 30 33 36 36 37 38 38 38 39 38 37 36 36 37 37 37 38 39 38 37 36 36 38 38 36 32 31 31 30 31 31 30 30 29 29 29 28 27 27 28 28 29 30 31 32 32 33 32 32 31 31 30 30 29 29 29 28 29
2 6 9 6 6 5 3 3 3 2 2 6 6 5 3 7 7 2 1 4 10 11 9 10 9 8 9 10 11 10 9 8 9 10 10 13 19 24 26 28 31 34 36 38 38 36 36 36 35 35 36 37 37 37 38 38 39 38 37 37 38 39 37 34 32 32 31 30 30 30 29 29 29 28 28 27 26 26 26 26 27 29 29 30 31 31 31 31 31 31 31 30 30 29 30 29 30
6 8 9 6 5 5 3 2 3 1 5 6 9 9 4 5 7 4 4 5 7 7 6 7 7 6 7 8 8 9 8 7 8 8 9 13 20 23 23 25 28 29 31 34 35 33 33 32 33 35 36 36 37 37 38 39 39 39 39 39 40 40 36 32 32 33 32 31 31 30 29 28 28 27 27 26 26 25 25 26 27 28 28 28 30 30 31 31 30 30 30 30 30 30 30 30 31
8 6 6 4 4 3 3 2 1 4 6 3 8 9 6 6 6 2 5 6 4 6 7 7 8 7 7 6 6 7 7 7 7 7 8 10 14 17 19 23 26 26 27 30 31 31 31 32 32 34 35 36 36 37 37 38 39 40 41 41 41 40 37 34 35 36 34 33 32 31 29 28 27 27 26 26 26 26 26 27 27 27 27 28 29 29 29 29 29 29 30 30 30 30 31 31 31
7 6 7 4 2 1 2 2 2 5 4 2 4 5 3 9 10 6 9 11 8 8 8 8 8 8 8 7 7 6 5 6 6 7 8 8 8 11 16 21 24 26 28 30 30 30 31 32 33 34 35 36 37 37 37 38 39 40 41 41 42 40 37 37 38 37 35 33 32 31 29 29 28 27 27 28 28 27 27 27 27 27 27 27 28 28 28 28 28 29 30 30 31 31 30 30 31
9 9 9 7 5 4 6 5 2 3 2 2 2 2 1 5 8 9 12 14 12 8 7 8 8 9 9 8 6 6 6 7 7 7 7 7 8 11 16 20 23 25 28 30 30 31 32 32 33 35 36 37 36 37 37 38 39 41 41 41 41 39 38 39 39 38 36 33 32 31 31 30 29 29 29 29 29 27 27 26 26 26 26 26 26 26 26 27 28 29 29 30 31 31 31 30 31
9 7 7 7 6 4 5 4 3 2 0 1 1 2 3 5 3 5 8 10 10 8 6 7 7 8 8 7 6 7 8 8 7 7 8 9 10 12 16 19 21 25 27 29 30 31 32 33 34 35 37 36 36 37 37 38 40 41 40 40 40 40 39 39 39 38 36 34 33 32 32 32 31 31 31 29 28 27 26 25 24 24 24 24 24 24 25 26 27 29 30 30 30 30 30 31 33
5 4 5 6 4 4 1 1 3 3 1 1 2 3 3 4 8 9 8 9 9 9 9 7 8 9 5 6 8 8 8 8 6 7 8 9 11 13 16 18 20 23 25 27 30 31 32 33 34 36 38 37 36 37 38 39 40 39 39 40 40 39 38 38 38 37 36 35 34 34 34 33 32 32 31 29 28 27 27 26 25 25 24 24 24 23 23 24 25 28 29 29 30 29 29 30 31
4 4 7 5 3 6 3 1 0 2 2 3 3 5 4 5 11 11 10 14 13 9 8 7 9 8 5 6 8 8 8 7 6 7 8 8 9 12 17 19 21 23 25 28 30 32 34 35 35 36 36 34 33 35 37 38 38 37 38 39 39 38 38 38 38 37 36 35 35 35 35 33 33 32 30 29 28 27 27 26 25 25 24 24 24 24 23 23 23 24 26 27 26 27 28 28 26
6 6 8 4 3 3 3 1 2 2 4 3 2 6 3 2 8 5 3 11 14 9 5 5 8 6 6 8 8 8 8 7 7 7 7 7 8 11 16 19 21 24 25 28 30 31 33 33 34 34 34 33 34 35 36 37 37 37 38 38 38 38 38 38 38 36 35 34 34 35 34 33 33 32 30 29 28 27 26 25 25 25 24 24 23 23 23 22 22 24 25 26 25 25 27 25 23
4 6 8 6 2 2 3 3 2 3 5 3 2 3 2 7 8 4 3 8 8 7 5 5 7 7 7 8 8 8 7 6 7 6 6 7 7 10 14 17 20 22 23 25 25 26 27 29 30 31 32 33 33 34 34 35 36 37 38 38 38 38 38 37 37 36 34 34 35 35 34 34 33 31 30 29 28 27 26 25 25 25 25 24 23 22 22 23 24 23 23 24 24 23 24 24 25
2 3 6 3 2 4 4 3 2 3 4 3 3 2 4 9 6 5 11 12 8 7 7 6 7 7 7 7 7 7 6 5 6 6 7 7 6 9 11 13 15 17 19 20 20 21 23 26 27 29 30 30 31 32 33 35 36 37 37 37 37 37 36 36 36 35 34 35 35 35 34 33 31 30 29 28 27 27 26 25 25 24 24 23 23 23 23 23 23 22 22 23 22 22 24 26 27
5 7 8 5 3 2 2 2 2 2 3 3 3 4 5 5 4 9 14 15 11 9 8 8 8 8 7 7 7 6 6 6 6 6 7 6 6 7 7 8 9 11 14 15 17 19 21 23 25 27 29 29 31 32 33 35 35 36 37 37 36 35 35 34 34 34 34 35 34 34 33 31 30 29 28 27 26 26 25 24 24 23 22 21 21 21 20 20 21 23 23 22 22 24 27 27 26
9 8 9 9 6 4 4 6 2 2 2 3 4 6 6 3 4 8 11 11 10 8 8 9 9 9 10 8 7 6 6 7 7 7 7 5 6 7 7 7 7 9 11 13 16 18 19 21 24 26 28 29 31 32 33 34 34 34 35 35 35 34 33 33 33 33 34 34 33 32 30 29 28 28 26 25 25 24 23 22 22 22 21 21 20 19 19 19 20 21 21 20 20 23 25 24 24
Wind_Direction
341 331 325 329 341 322 348 47 84 322 73 83 293 129 217 202 176 187 187 258 271 260 195 105 133 128 116 158 174 169 151 165 163 128 191 221 149 158 155 149 162 164 164 161 157 153 148 142 144 146 135 139 133 129 142 139 126 118 111 102 98 95 94 95 97 96 99 104 107 105 102 100 99 100 100 98 97 92 90 91 89 87 90 92 96 98 97 92 86 81 78 80 84 89 88 87 85
347 329 326 322 1 7 278 70 93 333 61 110 255 180 228 72 147 198 196 210 196 178 115 107 100 89 62 62 128 122 98 238 165 140 137 134 145 160 158 156 165 165 165 162 158 155 150 146 148 146 137 137 130 126 135 143 137 130 130 118 109 104 102 101 97 101 107 111 111 108 107 103 102 102 97 92 94 96 94 95 94 92 93 95 99 101 100 95 88 83 81 81 84 91 90 89 87
352 336 334 287 3 37 69 41 84 82 92 176 253 243 224 142 196 211 211 207 171 144 114 106 74 62 33 14 73 104 145 210 146 115 90 143 153 163 162 162 165 166 166 162 157 157 153 148 150 147 140 136 133 130 128 136 137 135 134 122 116 114 113 108 103 111 116 116 112 111 112 106 106 107 103 99 98 101 102 100 97 94 95 98 102 103 102 96 89 85 84 82 85 91 93 90 89
6 0 346 255 11 37 62 37 128 124 133 196 247 251 212 180 199 217 227 200 161 132 93 72 47 23 42 12 310 44 177 223 164 147 145 164 163 160 160 162 166 165 162 160 158 158 154 150 154 153 144 138 138 136 130 134 134 127 125 119 121 122 121 115 112 117 121 122 118 118 117 108 108 115 117 112 107 108 109 102 99 100 102 104 104 103 102 96 90 89 85 84 86 90 91 91 92
21 17 8 92 89 43 92 70 113 112 181 187 172 247 227 196 186 193 216 201 181 137 107 91 84 287 26 150 158 85 217 251 166 164 161 167 164 159 159 164 165 163 160 158 159 158 154 154 157 157 149 138 135 137 134 135 134 128 125 125 127 129 128 122 119 121 125 128 123 121 118 110 109 116 117 111 108 112 110 103 103 102 102 103 102 103 101 97 91 89 88 88 92 91 92 92 92
16 22 32 64 94 110 119 114 154 175 222 171 147 246 223 190 178 169 174 251 268 198 161 122 149 171 38 282 189 175 215 24 160 174 172 166 165 163 161 165 165 163 160 158 160 159 155 156 158 157 146 130 128 130 130 129 131 132 131 130 130 132 132 128 126 127 127 125 126 123 118 115 116 121 118 114 112 108 105 106 107 101 100 99 99 100 100 98 94 93 95 97 97 95 96 95 96
20 350 31 60 69 46 102 162 192 215 233 168 168 234 202 180 169 148 153 209 296 253 149 151 136 122 119 302 194 198 311 301 169 178 176 165 165 167 164 167 166 163 161 159 162 161 158 159 160 155 142 132 132 130 129 129 130 131 131 133 135 135 134 133 131 131 131 127 129 127 122 121 123 129 122 115 114 105 103 105 102 100 100 99 99 101 102 102 99 104 108 107 103 101 99 97 100
34 16 25 78 44 30 86 160 224 214 224 211 222 231 197 171 155 142 168 193 192 256 125 146 106 95 223 4 155 243 312 228 210 182 171 165 168 168 168 170 167 163 162 161 163 164 162 163 161 153 147 139 134 133 135 135 134 133 128 130 139 141 138 139 136 136 141 140 138 133 133 131 128 132 124 115 114 108 106 107 103 103 103 102 105 107 107 108 108 116 116 115 114 110 105 102 99
43 35 123 78 70 34 43 324 267 244 261 268 255 236 190 151 143 136 165 224 211 179 151 174 147 82 186 86 247 272 328 218 199 176 169 168 170 170 171 172 170 165 162 162 165 167 165 167 164 157 155 144 136 141 143 141 140 143 136 133 143 146 143 145 144 143 144 143 148 146 141 138 133 131 127 128 126 118 114 116 113 111 110 108 110 111 112 115 117 125 123 120 119 114 110 104 95
44 25 129 64 83 41 346 292 269 261 258 265 247 219 171 143 137 137 157 172 174 151 186 199 104 83 137 145 260 307 343 192 171 169 169 169 170 171 173 174 174 166 162 164 167 170 168 168 167 163 161 149 146 152 154 152 150 155 151 143 152 159 158 157 150 150 148 140 150 151 146 142 138 135 132 133 128 123 124 126 122 120 120 118 117 117 121 123 123 128 124 118 114 110 108 99 88
46 359 108 70 71 119 249 244 270 267 273 293 272 219 178 142 124 134 122 126 155 135 182 238 126 130 100 271 256 318 258 181 171 171 169 168 169 173 175 175 176 169 163 165 168 171 169 168 171 169 164 157 159 161 159 159 156 157 156 154 164 168 169 174 158 152 157 151 157 154 150 147 142 143 139 134 128 128 133 135 132 130 131 130 126 124 127 130 129 127 121 115 110 104 103 102 93
115 331 69 88 145 187 198 204 266 279 310 320 189 234 164 126 121 176 150 140 168 149 214 214 168 132 95 297 259 313 186 179 180 175 170 169 170 174 177 176 177 174 165 166 170 172 170 170 173 172 167 165 166 163 157 158 158 155 160 170 179 171 170 186 175 153 161 165 170 166 159 153 146 152 146 139 138 137 140 145 142 135 136 136 132 131 130 131 129 128 126 119 114 110 108 109 107
134 160 91 154 189 158 161 170 273 315 324 270 190 231 140 132 189 196 158 132 141 151 244 216 152 101 124 258 272 299 194 182 181 176 173 171 171 172 176 175 179 179 169 169 172 173 173 172 174 173 169 166 164 163 161 163 163 158 168 179 179 172 166 179 176 159 167 173 173 171 171 169 164 167 160 152 152 150 150 153 149 145 150 147 139 136 134 132 131 130 129 125 123 122 120 119 116
135 160 125 165 145 135 158 156 264 170 251 257 204 185 149 160 200 177 143 137 179 179 240 199 151 109 145 264 293 275 198 184 179 177 175 173 175 171 173 175 179 182 175 173 174 176 177 176 176 174 172 169 165 164 167 170 167 166 178 183 173 169 166 168 171 172 179 182 180 173 172 178 179 177 175 176 177 170 164 164 164 161 163 156 146 144 142 138 136 134 129 129 132 137 139 137 127
141 146 103 124 110 167 181 180 180 161 230 235 167 160 149 223 149 148 166 165 212 219 135 129 155 162 179 174 238 248 189 179 176 176 175 176 180 175 176 176 180 182 178 178 177 180 182 181 178 178 182 176 171 169 170 174 172 174 181 186 178 170 175 174 174 184 190 190 193 187 179 181 185 187 189 194 197 194 188 182 179 172 167 161 155 151 150 147 143 141 135 132 135 143 145 145 131
130 114 74 116 165 204 204 191 128 137 242 225 198 148 142 256 139 154 220 159 160 220 137 161 192 201 179 175 246 243 178 173 172 174 174 176 179 177 179 179 181 182 180 181 180 183 189 185 180 185 191 183 180 180 178 179 179 182 183 187 187 182 184 182 182 191 199 200 204 206 198 193 194 197 199 206 208 213 218 206 193 182 175 167 161 158 159 159 155 150 142 139 141 144 147 152 143
93 90 86 215 184 195 196 180 165 164 235 240 259 178 149 235 265 169 263 92 115 149 223 227 235 240 190 211 321 176 167 168 168 169 170 173 175 176 179 180 181 183 186 186 182 187 192 188 185 190 194 193 192 189 189 187 186 189 191 193 193 196 195 192 195 198 204 209 213 217 212 206 205 207 207 212 217 221 226 219 205 195 187 173 168 170 171 170 167 167 161 157 157 161 166 172 168
84 97 137 225 186 193 185 180 193 168 198 208 210 183 156 186 203 167 69 57 57 89 277 307 293 276 244 269 306 159 163 164 166 166 167 172 175 175 178 181 181 185 190 189 188 190 192 191 192 193 195 200 199 195 198 197 194 195 199 201 200 204 204 206 215 208 209 213 217 221 219 217 216 215 215 217 223 226 226 220 212 205 196 182 180 183 183 184 184 186 188 190 186 185 197 203 219
105 118 159 230 194 203 193 174 186 176 185 175 180 180 166 188 172 148 178 243 43 165 252 335 307 275 294 262 161 159 163 163 167 168 168 174 178 179 179 181 184 187 188 190 193 193 192 193 195 196 198 202 203 202 203 204 204 204 204 205 206 210 212 217 223 217 214 215 218 221 222 224 223 222 223 225 228 231 230 224 215 208 202 195 194 196 197 199 202 210 217 221 214 215 226 229 245
135 129 185 240 212 224 212 174 191 219 184 153 171 174 168 213 165 157 175 171 191 207 221 219 247 242 226 174 157 159 164 165 171 173 173 177 181 183 182 182 186 188 187 190 196 197 194 194 197 199 203 204 205 206 205 206 207 210 212 210 210 212 215 218 220 221 218 217 218 219 223 224 225 226 227 230 232 235 236 232 224 214 208 206 206 208 211 214 218 226 234 238 243 247 248 254 260
146 149 193 229 197 216 212 183 194 215 183 159 157 133 168 223 163 160 146 141 248 242 225 204 210 209 185 181 166 164 168 170 176 179 179 182 185 187 188 187 187 188 188 189 197 202 196 196 201 202 206 208 207 206 206 209 209 211 215 215 215 213 214 215 216 221 222 220 219 219 223 224 225 227 229 233 235 238 239 238 233 225 218 216 216 216 219 223 226 232 239 246 256 267 264 268 269
148 194 190 187 165 198 219 182 175 152 110 139 138 145 179 168 139 163 152 170 232 228 223 213 211 193 171 173 170 168 174 177 181 185 185 187 190 191 192 191 190 190 190 191 198 206 201 199 205 205 207 210 209 208 207 209 212 214 216 216 217 216 215 215 216 220 223 223 221 221 223 225 226 229 232 235 238 241 242 241 237 231 226 223 223 223 225 229 233 238 245 253 260 271 272 271 272
168 216 190 177 169 185 229 168 168 131 114 154 163 176 150 129 220 182 167 207 219 203 215 218 219 189 163 160 162 170 181 186 189 191 190 190 192 193 194 193 193 192 192 194 198 205 206 204 207 208 208 211 210 209 209 211 215 218 219 219 219 219 218 217 217 219 222 225 224 225 226 227 229 231 234 237 240 242 242 240 236 233 229 228 228 227 229 233 238 244 250 257 263 272 277 273 268
161 205 211 180 165 180 207 115 150 137 143 186 183 138 138 165 207 132 197 233 227 217 247 208 186 157 153 155 168 182 186 192 197 197 195 194 196 196 197 195 195 195 195 198 199 203 208 210 210 209 210 214 212 210 212 213 217 220 221 221 222 222 222 222 221 220 221 224 227 228 229 229 231 233 235 235 237 238 237 236 234 234 232 232 231 230 232 235 240 247 254 260 266 271 276 276 268
185 204 213 157 141 163 123 82 90 126 155 168 131 142 216 196 179 135 233 248 250 247 88 116 139 143 159 170 182 187 189 197 201 202 202 201 201 200 200 200 199 199 200 201 202 204 208 211 212 211 212 215 214 213 215 216 217 220 221 222 223 223 225 227 227 226 224 224 226 227 228 229 230 231 231 230 231 232 230 232 234 234 235 235 234 233 234 238 243 249 257 262 267 270 276 278 271
207 186 164 139 131 134 103 90 69 63 174 135 130 203 275 231 185 251 248 247 246 126 103 122 136 155 180 183 188 188 192 199 200 203 205 205 203 202 203 203 202 204 207 206 205 208 209 211 213 213 214 215 217 217 218 220 220 221 223 223 224 225 228 230 231 231 230 227 226 226 227 229 229 229 227 226 228 230 231 233 236 237 238 239 238 237 238 242 247 252 258 264 269 272 276 277 270
188 156 129 116 115 120 105 126 171 33 240 174 154 226 271 309 245 240 262 255 128 109 117 152 157 181 194 192 197 194 197 202 202 202 203 205 205 206 206 205 206 209 211 211 211 212 211 211 214 215 215 216 218 220 221 223 224 225 226 226 227 229 230 233 234 235 235 233 229 227 228 230 230 228 227 228 232 235 237 238 240 241 242 242 242 241 243 247 251 255 259 264 269 272 273 270 266
145 144 130 53 45 41 103 134 199 147 205 167 144 242 278 336 232 227 252 231 136 144 158 181 184 200 204 199 202 197 206 208 203 201 201 206 208 209 210 208 210 213 214 215 217 217 214 214 215 216 216 217 219 222 224 226 227 229 229 229 230 232 234 236 238 238 239 238 233 230 230 231 231 231 231 233 237 241 243 244 244 247 246 246 247 247 249 251 254 257 261 263 266 269 269 265 263
123 133 144 352 25 344 227 171 189 168 180 182 140 310 270 223 208 229 235 164 134 162 187 207 207 211 210 207 210 206 213 208 201 208 211 212 212 212 213 214 214 215 217 219 222 222 221 221 220 218 218 219 221 223 226 227 230 232 232 234 235 236 237 239 241 241 243 242 238 233 232 233 233 233 235 237 242 246 248 247 248 250 250 251 253 253 254 256 257 260 263 265 266 267 267 265 264
120 107 131 116 32 301 232 166 129 157 177 194 152 270 253 227 224 227 217 161 138 179 215 222 219 221 216 209 214 217 215 205 204 213 216 217 216 216 217 218 218 218 219 221 223 224 224 226 224 223 221 221 223 224 227 229 231 233 235 236 238 239 239 241 243 244 246 245 242 238 235 235 235 235 236 239 244 249 251 249 249 251 252 256 258 258 259 261 262 261 262 264 266 266 265 266 266
115 99 33 130 149 268 260 177 143 160 208 135 126 251 251 223 237 235 217 177 171 205 226 224 222 224 220 212 214 221 218 212 215 217 218 219 220 220 221 221 221 221 221 222 224 225 226 227 226 226 225 224 225 225 228 231 233 234 237 239 239 240 241 242 244 244 246 246 244 240 237 236 237 237 237 240 244 249 252 250 250 251 254 259 261 262 263 264 263 262 262 263 265 264 263 266 268
104 183 211 125 194 265 301 191 166 177 234 92 130 243 266 235 243 263 242 183 188 217 230 229 228 225 223 220 217 224 227 222 225 226 224 223 222 222 223 223 223 222 223 224 225 226 227 228 228 228 228 228 228 228 229 232 235 237 239 241 242 243 243 244 245 245 247 247 246 243 241 239 239 240 239 241 244 248 251 252 252 254 258 262 263 265 265 264 263 263 264 263 265 264 263 266 269
249 206 166 153 197 236 312 279 212 188 146 172 198 238 275 282 251 294 24 169 175 221 242 243 239 239 232 225 226 230 235 230 231 232 228 225 224 224 224 225 225 224 225 226 226 226 227 228 228 229 230 231 231 231 232 234 237 240 241 242 243 245 245 245 246 247 247 247 247 245 245 244 244 244 243 242 245 248 251 253 255 258 261 265 264 263 264 264 265 265 265 264 264 263 262 265 269
192 184 163 202 202 193 221 274 263 185 165 210 218 240 245 221 249 293 20 163 163 208 242 251 245 246 239 226 234 236 235 234 230 229 227 225 225 225 225 226 227 227 227 228 228 228 228 228 228 230 231 232 233 234 234 236 238 240 242 244 244 245 246 247 248 248 249 249 249 249 247 247 247 249 248 246 246 248 252 255 257 259 262 265 265 262 262 265 267 266 265 263 261 261 261 264 270
159 166 170 224 228 200 200 233 223 162 194 220 206 244 249 245 262 270 241 168 166 205 226 244 245 243 243 232 230 234 235 238 236 232 228 226 226 226 226 227 228 228 228 229 229 230 230 230 229 230 231 232 233 235 235 236 238 239 240 242 243 244 245 246 247 247 250 251 252 252 250 249 248 249 251 251 249 249 252 255 257 258 260 263 264 263 262 262 263 262 262 261 259 259 261 265 269
158 171 185 207 225 229 210 237 242 166 172 220 212 236 248 246 250 253 247 189 183 231 235 243 251 250 248 239 233 234 233 238 241 239 234 229 228 228 227 227 227 228 228 229 229 229 229 229 229 230 230 231 232 233 233 233 233 235 236 238 239 240 243 244 246 248 251 252 253 253 252 251 250 250 251 253 253 252 253 255 257 258 260 262 263 262 261 260 260 260 261 262 261 261 263 265 267
153 165 194 210 217 248 228 209 260 171 154 227 223 238 250 245 245 251 251 195 211 245 246 243 244 243 242 239 238 235 232 239 245 242 238 234 231 229 227 226 226 227 227 227 227 228 229 228 228 229 230 230 230 230 230 230 229 230 231 234 236 239 242 243 246 248 250 252 252 252 252 252 252 252 252 253 254 254 254 255 256 257 259 261 263 262 261 261 262 262 262 264 263 263 264 266 267
152 169 196 215 216 241 241 204 231 151 161 251 241 252 259 253 255 262 257 221 234 235 238 242 239 236 237 236 239 238 240 245 242 238 234 232 230 227 225 224 223 223 225 224 225 228 229 229 229 230 230 229 230 230 229 230 230 230 231 234 237 240 243 244 246 249 251 252 252 251 251 251 252 253 254 254 254 255 255 255 256 257 258 260 262 263 262 262 262 262 261 261 262 262 264 266 265
160 170 187 216 212 263 297 292 326 139 180 260 299 268 265 255 245 257 252 238 241 232 231 239 235 235 236 233 236 239 246 246 236 230 229 228 226 224 221 221 222 224 225 224 225 226 227 229 229 229 230 230 230 230 230 231 232 233 235 238 241 243 246 247 249 252 252 252 252 251 251 251 252 253 255 255 255 256 255 255 256 257 258 258 260 262 262 261 261 261 260 259 260 261 263 264 262
170 170 179 208 174 146 269 299 348 315 191 255 326 294 279 264 242 251 246 238 246 240 232 238 234 234 237 234 230 228 234 239 236 229 227 225 222 219 218 219 221 223 224 223 223 224 225 227 228 228 229 230 231 231 231 233 234 236 237 240 242 244 247 249 251 251 250 251 251 251 251 251 252 253 254 255 256 256 256 256 257 257 258 258 259 260 261 261 261 261 260 259 257 256 258 261 260
176 178 174 173 157 158 213 294 14 346 351 7 347 312 283 257 240 249 248 244 254 244 230 241 240 235 240 242 232 224 229 234 231 228 226 221 216 217 218 219 221 220 220 223 224 224 225 226 228 228 230 230 231 232 232 232 232 233 234 235 237 240 244 245 245 246 246 248 250 251 252 252 253 253 254 254 255 256 257 258 258 258 259 259 259 260 261 262 262 262 261 259 256 253 255 259 259
182 202 169 150 156 149 104 90 50 26 328 322 352 282 276 276 246 251 265 287 263 242 218 240 243 237 234 236 235 228 230 234 230 225 222 220 218 217 219 219 219 219 221 224 226 226 227 227 228 228 229 230 230 231 231 230 228 229 228 227 228 230 235 238 239 241 244 247 250 252 253 254 254 254 254 254 255 256 257 258 259 260 260 260 260 261 261 261 261 262 261 259 257 256 255 255 255
202 203 153 127 138 140 125 147 120 135 259 301 65 220 266 298 253 244 254 263 264 259 235 243 244 243 230 224 234 229 227 232 230 227 220 221 220 215 218 219 218 219 224 226 227 228 227 227 228 228 228 228 229 230 229 228 227 227 226 226 227 228 232 238 240 243 246 249 252 254 255 255 255 255 255 255 256 257 258 259 260 261 260 261 260 260 260 260 261 262 262 260 259 258 254 248 252
216 187 143 126 132 155 159 167 196 221 262 313 17 159 263 281 260 250 255 258 270 268 253 249 243 242 236 225 232 227 223 224 222 224 220 220 219 212 216 220 221 223 225 227 226 226 226 227 228 227 227 227 227 228 228 227 226 225 226 227 230 232 235 241 243 246 249 251 253 254 255 256 256 257 257 258 258 259 260 260 261 261 260 261 260 260 260 261 262 262 261 259 258 256 252 248 251
228 158 130 131 136 156 158 162 191 19 347 271 249 149 236 272 270 301 355 254 262 259 250 251 246 240 237 230 232 230 228 225 220 222 222 222 221 218 220 222 225 226 226 227 227 226 226 227 226 225 225 226 226 227 227 228 228 227 226 227 230 235 238 241 244 247 250 251 252 253 254 255 256 257 258 259 260 261 262 262 262 262 261 261 261 260 261 261 261 261 259 258 256 255 254 252 251
188 116 92 87 87 85 100 148 154 73 286 230 200 175 213 273 260 201 86 243 249 253 250 252 251 243 238 236 237 239 239 234 228 228 227 227 227 227 226 226 227 227 226 228 228 226 224 224 222 222 224 225 226 226 226 227 228 227 227 228 231 235 237 239 242 245 247 248 250 251 251 252 254 255 257 258 260 261 262 263 262 261 261 262 261 261 261 261 260 260 260 259 258 256 254 253 252
135 101 81 68 59 50 51 78 100 129 255 219 185 179 174 279 267 193 192 234 236 239 246 257 263 261 252 246 242 237 234 231 230 233 236 235 235 235 232 230 230 229 227 227 226 224 222 221 220 221 224 224 224 225 225 227 227 226 228 229 232 235 236 236 239 242 243 244 246 248 249 251 253 254 256 257 259 260 261 262 262 261 261 261 261 261 261 261 261 261 261 260 258 256 255 254 254
126 98 111 96 59 32 25 18 69 211 246 222 175 170 161 233 255 200 231 262 239 217 229 248 259 267 264 257 253 243 234 235 234 235 241 239 239 238 232 230 230 228 226 226 225 223 221 220 219 221 223 223 224 224 225 226 226 226 228 230 232 235 235 235 238 241 241 241 244 246 247 249 250 251 253 254 257 259 260 261 260 260 260 259 259 260 260 261 261 260 260 258 257 255 254 253 251
128 122 146 137 121 181 201 200 212 220 255 352 162 157 171 237 252 258 262 268 249 221 223 240 249 259 266 260 255 251 241 241 238 234 238 237 236 233 227 226 226 223 223 223 222 221 220 220 219 220 223 224 223 223 224 224 225 227 229 230 232 234 234 235 238 241 241 242 243 245 245 246 246 247 248 251 255 258 260 261 261 261 260 260 260 260 260 259 258 257 256 255 254 253 253 252 251
164 159 167 169 165 190 205 200 223 235 264 15 165 184 280 261 268 257 250 259 260 245 224 230 242 251 258 259 254 254 247 239 235 235 236 234 233 230 226 225 222 221 222 221 219 219 219 219 218 220 224 225 223 223 223 224 226 229 230 231 233 233 233 236 238 240 241 242 244 245 247 247 247 248 250 254 258 260 261 262 264 264 263 262 261 260 259 259 258 256 255 254 253 252 252 252 253
183 168 168 185 180 191 204 194 201 209 349 17 198 225 198 187 250 253 233 249 266 272 248 235 250 252 257 272 270 260 253 244 232 232 238 236 236 234 231 227 223 221 222 219 218 218 217 218 218 220 224 224 223 223 223 225 228 230 230 232 233 233 234 236 239 241 241 243 245 246 248 249 250 252 254 258 260 260 261 263 264 265 265 265 263 261 259 257 256 255 254 254 254 255 254 254 253
197 141 158 202 188 150 139 170 177 151 114 230 210 241 216 213 272 276 258 256 253 253 259 261 264 262 267 278 271 263 259 256 243 236 243 243 240 236 232 228 225 223 222 219 219 217 216 218 219 221 225 224 223 223 223 226 228 229 229 232 233 234 234 236 238 241 242 243 245 247 250 251 253 255 256 258 259 259 260 262 262 263 264 265 265 265 263 260 258 255 254 253 253 254 253 252 252
168 164 181 195 125 114 109 215 61 91 202 221 199 249 295 310 283 269 250 257 257 245 249 259 262 268 279 266 258 259 257 257 254 246 249 250 243 235 228 225 224 223 221 221 220 220 219 220 220 222 224 224 223 225 225 227 228 228 230 232 233 233 234 236 238 240 242 244 246 248 250 252 254 255 256 258 259 259 259 260 261 263 263 264 264 265 264 263 262 259 257 256 256 258 256 252 255
144 190 181 132 70 88 101 157 25 56 234 259 218 238 272 265 268 288 222 245 258 261 262 272 270 263 258 255 252 255 255 259 266 261 257 256 247 237 229 225 225 224 224 224 224 224 223 223 223 223 224 224 225 227 227 228 228 229 231 232 233 234 235 237 239 241 242 244 246 248 250 252 253 255 257 258 258 258 258 259 260 260 261 262 263 264 264 264 263 260 260 258 255 257 256 255 260
150 186 164 136 161 201 148 172 189 193 228 276 294 264 237 210 233 287 254 230 243 271 296 305 284 256 244 256 264 269 272 272 271 267 264 258 246 239 233 229 229 227 227 228 228 227 225 225 225 226 228 229 229 229 229 230 230 231 233 234 235 235 236 238 240 241 242 244 247 249 249 251 253 255 256 257 257 258 258 258 258 258 259 260 260 260 259 259 258 257 261 261 258 257 258 259 262
57 127 155 163 193 185 176 174 163 200 220 255 311 309 239 224 205 197 239 247 241 261 286 292 275 260 250 250 257 270 274 265 264 263 261 261 257 252 244 238 237 233 231 231 230 229 228 227 227 228 231 232 232 232 231 232 233 233 235 235 236 236 237 239 241 242 243 245 248 249 249 251 253 255 256 257 257 257 257 258 258 258 259 260 260 259 259 259 258 256 254 257 259 261 262 262 263
150 159 176 197 188 137 174 185 129 154 191 196 253 268 251 243 192 182 223 249 250 247 257 257 256 260 258 248 242 253 264 264 262 253 254 266 283 282 268 254 246 235 232 231 229 230 230 229 229 229 231 231 231 232 232 233 234 234 234 234 235 236 238 240 242 242 244 246 247 248 249 252 254 255 255 255 255 256 257 257 258 258 259 258 258 258 258 257 257 256 254 255 259 262 261 261 263
175 180 183 187 181 136 182 216 182 127 192 176 199 257 270 243 206 201 215 239 252 245 237 245 252 253 259 260 247 244 255 261 257 251 259 275 292 296 290 267 245 228 224 222 222 225 225 227 228 229 229 230 232 233 233 234 234 234 234 236 237 238 239 240 240 241 242 243 245 246 249 251 252 253 253 253 253 254 255 255 256 257 255 253 252 252 252 253 254 256 258 258 259 261 262 261 261